| time (UTC) | temp F | wind direction | speed MPH | gust MPH | rain 1hr in | rain 24hr in | rain mn in | humidity % | barometer mb |
| 20260507200040 | 64 | 305 | 5.0 | 11.0 | 0.00 | 0.33 | 0.28 | 28 | 1004.6 |
| 20260507194359 | 64 | 293 | 6.0 | 13.0 | 0.00 | 0.34 | 0.28 | 32 | 1004.8 |
| 20260507191044 | 63 | 313 | 6.0 | 12.0 | 0.00 | 0.34 | 0.28 | 34 | 1005.0 |
| 20260507185359 | 65 | 281 | 5.0 | 11.0 | 0.00 | 0.34 | 0.28 | 36 | 1005.3 |
| 20260507183720 | 64 | 280 | 6.0 | 14.0 | 0.00 | 0.34 | 0.28 | 36 | 1005.5 |
| 20260507182039 | 64 | 275 | 4.0 | 11.0 | 0.00 | 0.34 | 0.28 | 37 | 1005.6 |
| 20260507180359 | 64 | 288 | 4.0 | 12.0 | 0.00 | 0.34 | 0.28 | 38 | 1005.7 |
| 20260507173039 | 64 | 276 | 5.0 | 14.0 | 0.00 | 0.34 | 0.28 | 44 | 1005.7 |
| 20260507171359 | 62 | 274 | 6.0 | 14.0 | 0.00 | 0.34 | 0.28 | 47 | 1006.0 |
| 20260507165721 | 62 | 256 | 3.0 | 8.0 | 0.00 | 0.34 | 0.28 | 51 | 1006.1 |
| 20260507164039 | 62 | 255 | 5.0 | 9.0 | 0.00 | 0.34 | 0.28 | 53 | 1006.3 |
| 20260507162359 | 60 | 261 | 4.0 | 12.0 | 0.00 | 0.34 | 0.28 | 56 | 1006.5 |
| 20260507160719 | 60 | 286 | 3.0 | 9.0 | 0.00 | 0.34 | 0.28 | 56 | 1006.7 |
| 20260507153406 | 60 | 278 | 3.0 | 7.0 | 0.00 | 0.34 | 0.28 | 57 | 1007.1 |
| 20260507151719 | 60 | 266 | 3.0 | 9.0 | 0.00 | 0.34 | 0.28 | 56 | 1007.2 |
| 20260507144359 | 57 | 306 | 2.0 | 9.0 | 0.00 | 0.34 | 0.28 | 67 | 1007.4 |
| 20260507141039 | 56 | 291 | 4.0 | 11.0 | 0.00 | 0.34 | 0.28 | 70 | 1007.6 |
| 20260507135400 | 54 | 306 | 5.0 | 12.0 | 0.00 | 0.34 | 0.28 | 79 | 1007.5 |
| 20260507132039 | 51 | 300 | 4.0 | 12.0 | 0.00 | 0.34 | 0.28 | 91 | 1007.7 |
| 20260507130359 | 50 | 270 | 2.0 | 7.0 | 0.00 | 0.34 | 0.28 | 93 | 1007.8 |
| 20260507124719 | 50 | 281 | 2.0 | 4.0 | 0.00 | 0.34 | 0.28 | 94 | 1007.8 |
| 20260507123046 | 49 | 260 | 2.0 | 3.0 | 0.01 | 0.34 | 0.28 | 94 | 1008.1 |
| 20260507121359 | 49 | 267 | 1.0 | 3.0 | 0.02 | 0.34 | 0.28 | 94 | 1007.7 |
| 20260507114039 | 48 | 215 | 1.0 | 3.0 | 0.02 | 0.33 | 0.27 | 93 | 1007.6 |
| 20260507105040 | 48 | 314 | 2.0 | 8.0 | 0.03 | 0.31 | 0.25 | 93 | 1007.2 |
| 20260507103404 | 48 | 299 | 3.0 | 7.0 | 0.03 | 0.31 | 0.25 | 93 | 1007.5 |
| 20260507101722 | 49 | 284 | 3.0 | 8.0 | 0.03 | 0.30 | 0.24 | 93 | 1007.8 |
| 20260507100039 | 49 | 288 | 1.0 | 3.0 | 0.02 | 0.29 | 0.23 | 94 | 1007.2 |
| 20260507094358 | 50 | 287 | 2.0 | 4.0 | 0.02 | 0.28 | 0.22 | 94 | 1007.0 |
| 20260507091038 | 50 | 279 | 2.0 | 6.0 | 0.08 | 0.27 | 0.21 | 93 | 1006.9 |
| 20260507085358 | 51 | 298 | 3.0 | 9.0 | 0.12 | 0.27 | 0.21 | 93 | 1006.7 |
| 20260507083718 | 52 | 297 | 2.0 | 7.0 | 0.20 | 0.26 | 0.20 | 93 | 1006.5 |
| 20260507082039 | 53 | 291 | 3.0 | 8.0 | 0.17 | 0.23 | 0.17 | 93 | 1006.7 |
| 20260507080358 | 54 | 273 | 2.0 | 10.0 | 0.11 | 0.17 | 0.11 | 92 | 1006.7 |
| 20260507074720 | 54 | 289 | 4.0 | 8.0 | 0.07 | 0.13 | 0.07 | 90 | 1006.5 |
| 20260507073039 | 55 | 295 | 2.0 | 7.0 | 0.00 | 0.06 | 0.00 | 91 | 1005.5 |
| 20260507071400 | 55 | 300 | 2.0 | 7.0 | 0.00 | 0.06 | 0.00 | 94 | 1005.5 |
| 20260507065721 | 56 | 272 | 1.0 | 7.0 | 0.00 | 0.06 | 0.00 | 95 | 1005.8 |
| 20260507064038 | 56 | 289 | 1.0 | 4.0 | 0.00 | 0.06 | 0.00 | 95 | 1005.6 |
| 20260507062358 | 56 | 240 | 0.0 | 1.0 | 0.00 | 0.06 | 0.00 | 95 | 1005.6 |
| 20260507060719 | 56 | 258 | 2.0 | 5.0 | 0.00 | 0.06 | 0.00 | 95 | 1005.9 |
| 20260507055039 | 56 | 272 | 1.0 | 3.0 | 0.00 | 0.06 | 0.00 | 95 | 1006.0 |
| 20260507053359 | 56 | 281 | 1.0 | 4.0 | 0.00 | 0.06 | 0.00 | 95 | 1006.3 |
| 20260507051720 | 56 | 247 | 1.0 | 3.0 | 0.00 | 0.06 | 0.00 | 95 | 1006.2 |
| 20260507050039 | 56 | 242 | 1.0 | 4.0 | 0.00 | 0.06 | 0.00 | 95 | 1006.3 |
| 20260507044358 | 56 | 248 | 1.0 | 3.0 | 0.00 | 0.06 | 0.00 | 95 | 1006.4 |
| 20260507041038 | 56 | 262 | 1.0 | 3.0 | 0.00 | 0.06 | 0.00 | 95 | 1006.3 |
| 20260507035359 | 56 | 242 | 2.0 | 5.0 | 0.00 | 0.06 | 0.06 | 95 | 1006.4 |
| 20260507033718 | 56 | 251 | 3.0 | 8.0 | 0.00 | 0.06 | 0.06 | 95 | 1006.7 |
| 20260507032038 | 55 | 242 | 3.0 | 6.0 | 0.00 | 0.06 | 0.06 | 95 | 1006.4 |
| 20260507030359 | 55 | 239 | 4.0 | 8.0 | 0.00 | 0.06 | 0.06 | 95 | 1006.2 |
| 20260507024718 | 55 | 244 | 3.0 | 8.0 | 0.00 | 0.06 | 0.06 | 95 | 1006.2 |
| 20260507021358 | 55 | 211 | 3.0 | 7.0 | 0.00 | 0.06 | 0.06 | 94 | 1006.1 |
| 20260507015718 | 56 | 223 | 2.0 | 7.0 | 0.00 | 0.06 | 0.06 | 94 | 1006.6 |
| 20260507014038 | 56 | 230 | 3.0 | 8.0 | 0.00 | 0.06 | 0.06 | 94 | 1006.7 |
| 20260507012358 | 56 | 225 | 3.0 | 9.0 | 0.00 | 0.06 | 0.06 | 94 | 1006.8 |
| 20260507010718 | 56 | 241 | 4.0 | 9.0 | 0.00 | 0.06 | 0.06 | 94 | 1006.9 |
| 20260507005041 | 56 | 247 | 3.0 | 9.0 | 0.01 | 0.06 | 0.06 | 94 | 1006.9 |
| 20260507003359 | 56 | 243 | 4.0 | 11.0 | 0.02 | 0.06 | 0.06 | 94 | 1006.9 |
| 20260507001718 | 56 | 225 | 4.0 | 10.0 | 0.02 | 0.06 | 0.06 | 94 | 1006.7 |
| 20260507000038 | 56 | 235 | 4.0 | 12.0 | 0.01 | 0.05 | 0.05 | 94 | 1006.6 |
| 20260506231038 | 56 | 234 | 3.0 | 12.0 | 0.02 | 0.04 | 0.04 | 93 | 1007.0 |
| 20260506225358 | 56 | 209 | 3.0 | 8.0 | 0.02 | 0.04 | 0.04 | 92 | 1006.7 |
| 20260506223720 | 57 | 214 | 3.0 | 9.0 | 0.02 | 0.04 | 0.04 | 92 | 1006.8 |
| 20260506222041 | 57 | 209 | 3.0 | 9.0 | 0.01 | 0.03 | 0.03 | 91 | 1007.2 |
| 20260506214720 | 58 | 232 | 4.0 | 12.0 | 0.00 | 0.02 | 0.02 | 90 | 1007.4 |
| 20260506211359 | 58 | 229 | 3.0 | 10.0 | 0.01 | 0.02 | 0.02 | 89 | 1007.5 |
| 20260506205717 | 58 | 237 | 4.0 | 10.0 | 0.02 | 0.02 | 0.02 | 89 | 1007.6 |
| 20260506204039 | 58 | 237 | 5.0 | 12.0 | 0.02 | 0.02 | 0.02 | 89 | 1007.9 |